Weather History for Rome Ciampino, Italy

Change the Weather History Date:

Tuesday, January 1, 2013

  Actual Average Record
Temperature  
Mean Temperature 45 °F -  
Max Temperature 57 °F 53 °F 59 °F (1997)
Min Temperature 33 °F 37 °F 26 °F (2000)
Degree Days  
Heating Degree Days 20    
Moisture  
Dew Point 40 °F    
Average Humidity 86    
Maximum Humidity 100    
Minimum Humidity 58    
Precipitation  
Precipitation 0.00 in 0.13 in - ()
Sea Level Pressure  
Sea Level Pressure 30.09 in    
Wind  
Wind Speed 2 mph ()    
Max Wind Speed 9 mph    
Max Gust Speed -    
Visibility 5.7 miles    
Events Fog , Rain    
Averages and records for this station are not official NWS values.
T = Trace of Precipitation, MM = Missing Value Source: Averaged Metar Reports

Daily Weather History Graph

Daily Weather History Graph

Search for Another Location

Airport:

Trip Planner

Search our weather history database for the weather conditions in past years. The results will help you decide how hot, cold, wet, or windy it might be!

Date:

Astronomy

Jan. 01, 2013 Rise Set
Actual Time 7:37 AM CET 4:49 PM CET
Civil Twilight 7:05 AM CET 5:21 PM CET
Nautical Twilight 6:30 AM CET 5:56 PM CET
Astronomical Twilight 5:56 AM CET 6:29 PM CET
Moon 9:07 PM CET (1/1) 9:37 AM CET (1/1)
Length of Visible Light 10h 15m
Length of Day
9h 12m
Waning Gibbous, 85% of the Moon is Illuminated
Jan 1
Waning Gibbous
Jan 5
Last Quarter
Jan 11
New
Jan 19
First Quarter
Jan 27
Full

Hourly Weather History & Observations

Time (CET) Temp. Dew Point Humidity Pressure Visibility Wind Dir Wind Speed Gust Speed Precip Events Conditions
12:15 AM 39.2 °F 35.6 °F 87% 30.15 in 5.0 mi NNE 1.2 mph - N/A   Partly Cloudy
12:45 AM 37.4 °F 35.6 °F 93% 30.15 in 5.0 mi NNE 1.2 mph - N/A Fog Fog
1:15 AM 37.4 °F 35.6 °F 93% 30.15 in 4.3 mi NNE 1.2 mph - N/A Fog Patches of Fog
1:45 AM 37.4 °F 33.8 °F 87% 30.15 in 4.3 mi NNE 1.2 mph - N/A Fog Patches of Fog
2:15 AM 37.4 °F 35.6 °F 93% 30.12 in 4.3 mi East 1.2 mph - N/A Fog Patches of Fog
2:45 AM 37.4 °F 35.6 °F 93% 30.12 in 5.6 mi SSE 1.2 mph - N/A Fog Patches of Fog
3:15 AM 37.4 °F 35.6 °F 93% 30.12 in 5.6 mi North 1.2 mph - N/A Fog Patches of Fog
3:45 AM 35.6 °F 35.6 °F 100% 30.12 in 5.0 mi North 1.2 mph - N/A Fog Patches of Fog
4:15 AM 35.6 °F 33.8 °F 93% 30.12 in 5.0 mi Calm Calm - N/A Fog Patches of Fog
4:45 AM 35.6 °F 33.8 °F 93% 30.09 in 5.0 mi NNE 1.2 mph - N/A Fog Patches of Fog
5:15 AM 35.6 °F 33.8 °F 93% 30.09 in 5.0 mi NNE 1.2 mph - N/A Fog Patches of Fog
5:45 AM 35.6 °F 33.8 °F 93% 30.09 in 5.6 mi NNE 2.3 mph - N/A Fog Patches of Fog
6:15 AM 33.8 °F 32.0 °F 93% 30.09 in 3.1 mi NNE 2.3 mph - N/A   Scattered Clouds
6:45 AM 33.8 °F 32.0 °F 93% 30.09 in 4.3 mi Calm Calm - N/A   Partly Cloudy
7:15 AM 33.8 °F 32.0 °F 93% 30.09 in 5.6 mi NNE 2.3 mph - N/A   Partly Cloudy
7:45 AM 33.8 °F 32.0 °F 93% 30.09 in 4.3 mi NNE 1.2 mph - N/A   Partly Cloudy
8:15 AM 33.8 °F 32.0 °F 93% 30.09 in 5.0 mi NE 2.3 mph - N/A   Scattered Clouds
8:45 AM 33.8 °F 32.0 °F 93% 30.09 in 5.6 mi NNE 2.3 mph - N/A   Partly Cloudy
9:15 AM 35.6 °F 33.8 °F 93% 30.12 in 5.6 mi NNE 2.3 mph - N/A   Partly Cloudy
9:45 AM 37.4 °F 33.8 °F 87% 30.12 in 5.6 mi North 1.2 mph - N/A   Partly Cloudy
10:15 AM 41.0 °F 37.4 °F 87% 30.12 in 5.6 mi NE 1.2 mph - N/A   Partly Cloudy
10:45 AM 42.8 °F 39.2 °F 87% 30.12 in 5.6 mi North 2.3 mph - N/A   Partly Cloudy
11:15 AM 46.4 °F 41.0 °F 81% 30.12 in 6.2 mi North 2.3 mph - N/A   Partly Cloudy
11:45 AM 48.2 °F 41.0 °F 76% 30.09 in 6.2 mi North 2.3 mph - N/A   Scattered Clouds
12:15 PM 51.8 °F 41.0 °F 67% 30.09 in 6.2 mi NNE 2.3 mph - N/A   Scattered Clouds
12:45 PM 53.6 °F 42.8 °F 67% 30.06 in 6.2 mi ENE 2.3 mph - N/A   Scattered Clouds
1:15 PM 57.2 °F 42.8 °F 59% 30.06 in 6.2 mi North 1.2 mph - N/A   Scattered Clouds
1:45 PM 55.4 °F 41.0 °F 58% 30.06 in 6.2 mi SSW 3.5 mph - N/A   Mostly Cloudy
2:15 PM 55.4 °F 42.8 °F 63% 30.06 in 6.2 mi SSW 5.8 mph - N/A   Mostly Cloudy
2:45 PM 55.4 °F 44.6 °F 67% 30.06 in 6.2 mi SSW 5.8 mph - N/A   Mostly Cloudy
3:15 PM 53.6 °F 44.6 °F 72% 30.06 in 6.2 mi SSW 6.9 mph - N/A Rain Light Rain
3:45 PM 53.6 °F 46.4 °F 77% 30.06 in 6.2 mi South 4.6 mph - N/A Rain Light Rain
4:15 PM 53.6 °F 48.2 °F 82% 30.06 in 6.2 mi South 3.5 mph - N/A Rain Light Rain
4:45 PM 51.8 °F 48.2 °F 88% 30.06 in 6.2 mi SSE 3.5 mph - N/A   Mostly Cloudy
5:15 PM 51.8 °F 48.2 °F 88% 30.06 in 6.2 mi SSE 5.8 mph - N/A   Mostly Cloudy
5:45 PM 50.0 °F 46.4 °F 87% 30.06 in 6.2 mi SE 5.8 mph - N/A Rain Light Rain
6:15 PM 50.0 °F 46.4 °F 87% 30.06 in 6.2 mi SSE 5.8 mph - N/A Rain Light Rain
6:45 PM 50.0 °F 46.4 °F 87% 30.06 in 6.2 mi SSE 6.9 mph - N/A Rain Light Rain
7:15 PM 50.0 °F 46.4 °F 87% 30.06 in 6.2 mi South 4.6 mph - N/A Rain Light Rain
7:45 PM 50.0 °F 46.4 °F 87% 30.06 in 6.2 mi SE 2.3 mph - N/A   Mostly Cloudy
8:15 PM 48.2 °F 46.4 °F 93% 30.06 in 6.2 mi SE 2.3 mph - N/A   Mostly Cloudy
8:45 PM 48.2 °F 46.4 °F 93% 30.06 in 6.2 mi ENE 1.2 mph - N/A   Scattered Clouds
9:15 PM 48.2 °F 46.4 °F 93% 30.06 in 6.2 mi Calm Calm - N/A Rain Light Rain
9:45 PM 48.2 °F 46.4 °F 93% 30.06 in 6.2 mi Calm Calm - N/A Rain Light Rain
10:15 PM 48.2 °F 44.6 °F 87% 30.06 in 6.2 mi SSE 9.2 mph - N/A   Scattered Clouds
10:45 PM 48.2 °F 42.8 °F 82% 30.06 in 6.2 mi SE 5.8 mph - N/A   Scattered Clouds
11:15 PM 48.2 °F 44.6 °F 87% 30.06 in 6.2 mi SSE 3.5 mph - N/A   Scattered Clouds
11:45 PM 50.0 °F 46.4 °F 87% 30.06 in 6.2 mi WNW 3.5 mph - N/A   Mostly Cloudy